Flag for Cambodia Weather past 2 weeks in Battambang, Cambodia

90 °F

Scattered clouds.

Feels Like: 93 °F
Forecast: 75 / 93 °F
Wind: 3 mph from North

Location: Siemreap

Current Time: Nov 27, 2015 at 3:47:55 PM

Latest Report: Nov 27, 2015 at 3:00 PM

Visibility: N/A

Pressure: 29.77 "Hg

Humidity: 49%

Dew point: 68 °F

Location of BattambangLocation

Historic Weather in Battambang — Graph


Battambang temperature yesterday

Maximum temperature yesterday: 91 °F (at 12:00 PM)
Minimum temperature yesterday: 81 °F (at 12:00 AM)
Average temperature yesterday: 85 °F

Past Weeks' High & Low Weather Summary

High93 °F (Nov 18, 3:00 PM)100% (Nov 12, 9:30 PM)29.92 "Hg (Nov 12, 9:30 PM)
Low70 °F (Nov 27, 12:00 PM)41% (Nov 20, 3:30 PM)29.71 "Hg (Nov 14, 3:30 PM)
Average85 °F73%29.82 "Hg
* Reported Nov 12 1:00 PM — Nov 27 1:30 PM, Battambang, Weather by CustomWeather, © 2015

Note: Actual official high and low records may vary slightly from our data, if they occured in-between our weather recording intervals... More about our weather records


Battambang weather history for previous 24 hours

Time TempWeatherWind HumidityBarometerVisibility
1:30 PM
Fri, Nov 27
88 °FPassing clouds.7 mph52%29.80 "HgN/A
1:00 PM88 °FPassing clouds.5 mph52%29.80 "HgN/A
12:00 PM70 °FPassing clouds.3 mph94%29.86 "HgN/A
11:00 AM84 °FPassing clouds.5 mph58%29.89 "HgN/A
10:00 AM84 °FSunny.3 mph62%29.92 "Hg10 mi
9:00 AM82 °FPassing clouds.5 mph66%29.89 "HgN/A
8:30 AM79 °FPassing clouds.5 mph74%29.89 "HgN/A
8:00 AM79 °FPassing clouds.2 mph79%29.89 "HgN/A
7:30 AM77 °FPassing clouds.3 mph79%29.86 "HgN/A
1:00 AM77 °FPassing clouds.5 mph94%29.83 "Hg6 mi
12:00 AM81 °FPassing clouds.7 mph84%29.86 "Hg6 mi
11:30 PM
Thu, Nov 26
81 °FPassing clouds.7 mph84%29.86 "Hg6 mi
11:00 PM81 °FPassing clouds.5 mph84%29.86 "Hg6 mi
10:30 PM81 °FPassing clouds.8 mph84%29.86 "Hg6 mi
10:00 PM81 °FPassing clouds.No wind84%29.86 "Hg6 mi
9:30 PM81 °FPassing clouds.No wind84%29.83 "Hg6 mi
9:00 PM81 °FPassing clouds.No wind84%29.83 "Hg6 mi
8:30 PM81 °FPassing clouds.1 mph84%29.83 "Hg6 mi
8:00 PM82 °FPassing clouds.2 mph70%29.83 "Hg6 mi
7:30 PM82 °FPassing clouds.3 mph70%29.83 "Hg6 mi
7:00 PM82 °FPassing clouds.3 mph70%29.80 "Hg6 mi
6:00 PM84 °FPassing clouds.5 mph70%29.77 "Hg6 mi
5:30 PM86 °FScattered clouds.1 mph62%29.77 "HgN/A
5:00 PM86 °FScattered clouds.3 mph62%29.77 "HgN/A
4:30 PM84 °FScattered clouds.6 mph66%29.77 "HgN/A
4:00 PM88 °FScattered clouds.3 mph59%29.74 "HgN/A
3:30 PM88 °FScattered clouds.6 mph59%29.74 "HgN/A
3:00 PM91 °FScattered clouds.2 mph49%29.77 "HgN/A
Weather by CustomWeather, © 2015

See weather overviewHow to use our weather pages